Zurück zum Katalog

ONEWEB-0141

AktivKommunikationPO
NORAD 47287·PAYLOAD·🇬🇧 United Kingdom

Gestartet Dec 18, 2020 von Vostochny Cosmodrome

Loading…

Nächste Überflüge (nächste 24 Stunden)

TLE

AktuellSource: CelesTrak SupGP

Epoche: Sep 14, 2026, 07:28 UTC

1 47287C 20100AF  26257.31126572 -.00002610  00000+0 -72648-2 0  2576
2 47287  87.8986 332.9574 0001881 109.9077 355.5101 13.12443299    19

Verfolge ONEWEB-0141 in Echtzeit mit AllMySat

Download on the App Store